#timestamp,LO_Frequency,Hit,StdDev 
1584331215.4,286046996.8,N
1584331235.3,286046995.5,N
1584331255.1,286047000.5,N
1584331275.8,286046999.2,N
1584331295.7,286046998.7,N
1584331315.5,286046996.0,N
1584331335.4,286046988.9,Y
1584331355.2,286046992.8,P
1584331375.0,286046994.9,N
1584331375.9,286046994.9,N
1584331395.8,286047002.2,N
1584331415.6,286047005.9,N
1584331435.4,286047005.4,N
1584331455.3,286047001.5,N
1584331475.1,286047003.4,N
1584331495.9,286047001.0,N
1584331515.7,286047006.0,N
1584331535.5,286047002.9,N
1584331555.4,286047004.6,N
1584331575.2,286046999.9,N
1584331595.0,286047002.8,N
1584331595.9,286047002.8,N
1584331615.8,286046995.4,N
1584331635.6,286046993.9,N
1584331655.5,286046999.1,N
1584331675.3,286046991.0,N
1584331695.1,286046986.3,Y
1584331715.9,286046995.6,P
1584331735.7,286047001.1,N
1584331755.6,286046996.5,N
1584331775.4,286047002.4,N
1584331795.2,286046996.6,N
1584331815.1,286047001.6,N
1584331816.0,286047001.6,N
1584331835.8,286047001.5,N
1584331855.6,286046994.3,N
1584331875.5,286046995.7,N
1584331895.3,286046995.5,N
1584331915.2,286046997.6,N
1584331935.9,286046995.0,N
1584331955.7,286046998.3,N
1584331975.6,286046997.2,N
1584331995.4,286046993.8,N
1584332015.2,286046997.7,N
1584332035.1,286046995.9,N
1584332036.0,286046995.9,N
1584332055.8,286046999.1,N
1584332075.7,286046997.4,N
1584332095.5,286046992.4,N
1584332115.3,286046996.2,N
1584332135.2,286046990.1,Y
1584332155.0,286046991.2,P
1584332155.9,286046991.2,N
1584332175.8,286046987.5,P
1584332195.6,286046994.5,N
1584332215.4,286046996.3,N
1584332235.3,286046996.8,N
1584332255.1,286047000.4,N
1584332275.9,286046996.6,N
1584332295.7,286046997.9,N
1584332315.5,286047002.4,N
1584332335.4,286046999.2,N
1584332355.2,286046996.9,N
1584332375.0,286047000.5,N
1584332376.0,286047000.5,N
1584332395.8,286047002.4,N
1584332415.6,286047000.2,N
1584332435.5,286046999.4,N
1584332455.3,286047000.0,N
1584332475.1,286047000.1,N
1584332495.9,286047003.0,N
1584332515.7,286047003.9,N
1584332535.6,286047011.9,N
1584332555.4,286047010.1,N
1584332575.2,286047016.5,Y
1584332595.1,286047009.3,P
1584332596.0,286047009.3,N
1584332615.8,286047012.2,N
1584332635.7,286047010.0,N
1584332655.5,286047016.4,Y
1584332675.3,286047007.2,P
1584332695.2,286047002.3,P
1584332715.0,286047001.5,N
1584332715.9,286047001.5,N
1584332735.7,286047004.5,N
1584332755.6,286047008.6,Y
1584332775.4,286047005.0,P
1584332795.3,286047007.0,P
1584332815.1,286047013.6,P
1584332835.8,286047007.5,N
1584332855.7,286047008.5,N
1584332875.5,286047009.6,Y
1584332895.4,286047003.0,P
1584332915.2,286046995.4,N
1584332935.0,286046993.0,N
1584332935.9,286046993.0,N
1584332955.8,286046995.6,N
1584332975.6,286046998.6,N
1584332995.4,286046995.7,N
1584333015.3,286046991.7,N
1584333035.1,286046990.3,N
1584333055.9,286046994.3,N
1584333075.7,286046992.1,N
1584333095.5,286046996.3,N
1584333115.4,286046995.2,N
1584333135.2,286046994.1,N
1584333155.0,286046996.0,N
1584333155.9,286046996.0,N
1584333175.8,286046995.3,N
1584333195.6,286047000.7,N
1584333215.5,286047003.5,N
1584333235.3,286047002.5,N
1584333255.1,286047001.2,N
1584333275.9,286046999.1,N
1584333295.7,286046999.7,N
1584333315.5,286047003.7,N
1584333335.4,286047002.9,N
1584333355.2,286047007.5,N
1584333375.1,286047005.8,N
1584333376.0,286047005.8,N
1584333395.8,286047004.6,N
1584333415.6,286047002.1,N
1584333435.5,286047004.0,N
1584333455.3,286047004.8,N
1584333475.1,286047008.8,N
1584333495.9,286047007.2,N
1584333515.7,286047000.3,N
1584333535.6,286047004.7,N
1584333555.4,286046998.9,N
1584333575.2,286046996.5,N
1584333595.1,286046994.3,N
1584333596.0,286046994.3,N
1584333615.8,286046997.6,N
1584333635.7,286046997.8,N
1584333655.5,286047004.0,N
1584333675.3,286046998.9,N
1584333695.2,286046999.6,N
1584333715.9,286046993.5,N
1584333735.8,286046993.6,N
1584333755.6,286047001.0,N
1584333775.4,286046997.4,N
1584333795.3,286047000.9,N
1584333815.1,286047003.4,N
1584333835.8,286047004.9,N
1584333855.7,286047006.3,N
1584333875.5,286047008.4,N
1584333895.4,286047008.2,N
1584333915.2,286047010.2,N
1584333935.0,286047012.9,N
1584333935.9,286047012.9,N
1584333955.8,286047013.9,N
1584333975.6,286047013.3,N
1584333995.4,286047008.0,N
1584334015.3,286047009.0,N
1584334035.1,286047011.5,N
1584334055.9,286047010.2,N
1584334075.7,286047009.5,N
1584334095.5,286047002.8,N
1584334115.4,286047001.3,N
1584334135.2,286046998.2,N
1584334155.0,286047001.1,N
1584334155.9,286047001.1,N
1584334175.8,286046996.8,N
1584334195.6,286047000.4,N
1584334215.5,286047000.8,N
1584334235.3,286047003.2,N
1584334255.1,286047006.9,N
1584334275.9,286047007.4,N
1584334295.7,286047007.2,N
1584334315.5,286047010.5,N
1584334335.4,286047008.5,N
1584334355.2,286047008.0,N
1584334375.1,286047016.6,Y
1584334376.0,286047016.6,P
1584334395.8,286047011.1,N
1584334415.6,286047005.0,N
1584334435.5,286046999.1,N
1584334455.3,286047004.4,N
1584334475.2,286047001.6,N
1584334495.9,286047006.4,N
1584334515.7,286047013.2,N
1584334535.6,286047017.2,Y
1584334555.4,286047006.1,P
1584334575.2,286047000.1,N
1584334595.1,286046996.7,N
1584334596.0,286046996.7,N
1584334615.8,286046990.8,N
1584334635.7,286046991.3,N
1584334655.5,286046992.0,N
1584334675.3,286046995.0,N
1584334695.2,286047000.8,N
1584334715.0,286047001.3,N
1584334715.9,286047001.3,N
1584334735.8,286047010.7,N
1584334755.6,286047006.3,N
1584334775.4,286047008.5,N
1584334795.3,286047008.7,N
